Dewpoint
44 37 36 38 35 30 30 28 25 29 36 34 34 34 34 34 33 34 34 34 33 33 38 39 40 40 39 39 40 41 43 46 47 50 55 55 56 59 59 58 61 62 61 61
40 36 36 36 36 34 31 29 28 32 36 34 34 33 34 33 32 31 31 32 32 33 37 38 38 38 37 37 38 38 39 42 43 45 51 58 57 52 52 53 54 49 47 48
36 34 37 35 34 31 31 29 29 28 33 33 31 26 27 29 33 32 31 31 32 35 36 36 36 36 36 35 35 36 36 37 37 38 49 57 54 51 49 50 46 41 39 40
36 35 35 34 34 34 32 33 33 33 32 25 29 22 27 25 25 28 29 32 34 35 35 34 33 33 34 33 33 33 33 32 32 34 38 42 41 39 40 38 38 38 35 35
34 34 34 34 33 35 33 35 33 34 33 29 28 25 26 27 24 27 30 34 34 34 34 32 32 32 32 31 30 30 31 30 28 27 32 33 32 34 33 34 33 33 32 31
36 40 37 35 36 34 36 34 33 33 30 21 27 24 22 23 24 25 32 34 33 33 32 31 30 29 28 27 27 27 28 29 26 25 25 29 28 27 29 29 30 31 30 30
36 36 39 39 36 38 35 33 26 24 25 19 24 26 23 23 24 30 32 33 33 32 31 30 27 26 25 24 24 25 25 26 26 23 23 24 25 25 25 27 28 28 27 28
31 29 36 38 36 35 35 33 24 17 21 22 25 22 22 26 30 30 32 33 33 31 31 29 27 25 24 23 22 23 23 23 24 22 21 22 23 24 24 24 26 26 26 27
31 30 36 38 36 36 36 33 33 27 22 22 23 23 21 27 30 32 32 32 31 31 30 28 25 23 22 21 21 21 21 21 22 22 21 20 21 22 22 23 24 25 25 23
30 29 34 36 37 35 35 34 28 26 12 14 18 19 18 23 25 30 32 31 31 31 29 27 25 22 21 20 19 20 20 20 21 21 20 20 20 21 21 22 23 23 24 25
30 30 33 35 34 31 32 31 31 31 26 18 17 16 21 26 27 28 31 32 32 30 28 26 25 23 20 19 19 18 19 19 19 20 20 20 20 20 20 21 22 23 24 24
33 31 30 32 33 35 32 30 31 23 22 24 23 20 24 27 27 29 29 31 31 30 28 26 24 23 20 19 18 18 18 18 18 19 19 19 19 20 20 20 22 23 23 24
34 31 24 27 32 33 32 32 31 30 28 25 22 20 24 27 28 29 29 31 32 31 29 26 22 22 22 18 17 16 17 17 18 19 18 18 19 19 20 21 22 22 23 23
38 35 26 19 23 29 29 31 32 30 23 25 25 25 25 27 27 26 27 31 32 31 30 26 23 21 20 17 15 14 15 16 17 18 19 19 19 19 20 21 21 22 22 23
36 30 30 29 26 25 26 27 27 28 29 26 25 25 27 28 28 28 28 29 30 32 31 28 26 22 18 15 13 14 15 15 16 16 16 17 18 19 20 20 21 22 22 21
34 27 28 23 25 24 23 24 25 26 25 25 25 25 27 26 26 24 25 26 26 29 32 30 29 24 18 14 13 13 15 15 16 16 16 17 18 18 19 19 20 21 21 20
32 27 20 14 23 21 14 22 24 24 25 23 20 19 21 20 21 22 23 26 27 26 26 31 30 26 20 14 13 14 14 16 17 17 17 18 19 18 18 19 20 20 20 21
30 27 24 11 12 6 18 21 22 21 21 22 22 22 22 23 26 28 28 28 27 28 29 30 31 25 17 16 14 14 16 17 16 16 17 19 20 21 21 21 21 22 21 20
29 28 20 20 4 16 18 18 18 17 13 19 20 18 16 21 18 15 22 28 26 24 26 29 26 17 14 14 15 17 17 18 18 18 18 19 20 20 20 20 19 20 19 19
27 27 21 12 9 8 14 19 19 16 13 15 15 15 15 16 14 16 23 22 18 16 16 16 15 16 16 16 17 17 17 17 17 17 18 19 21 20 18 18 19 21 19 19
22 22 19 15 13 16 19 18 19 12 8 12 13 16 17 17 16 21 20 17 16 16 16 15 15 15 15 17 17 16 16 17 18 18 18 19 19 18 18 19 19 19 20 17
21 21 18 21 18 13 21 19 15 16 17 17 17 18 18 20 23 23 20 16 16 16 15 15 15 15 14 17 17 15 14 16 17 17 17 17 18 17 18 18 18 18 17 15
15 20 17 20 19 20 20 19 21 20 18 17 22 22 23 23 24 22 18 16 16 14 14 14 13 14 15 15 16 14 13 15 15 15 15 15 16 17 17 16 15 13 12 12
21 21 19 16 20 21 21 22 23 21 21 21 22 22 23 22 22 22 17 15 14 14 12 12 11 11 12 14 15 13 14 14 14 13 13 13 13 13 14 13 12 10 8 8
21 20 17 17 21 21 23 24 24 24 24 23 19 19 19 19 19 20 17 16 14 12 11 9 9 10 9 10 10 11 12 13 13 13 13 12 11 10 10 9 9 9 9 6
21 20 18 17 20 20 19 20 23 24 24 23 20 17 17 18 19 18 15 14 12 10 11 11 10 8 7 7 7 8 10 13 12 11 10 9 7 6 5 4 3 6 6 7
Lifted_Index
4 5 5 6 6 7 7 7 7 8 8 7 6 6 7 8 8 8 7 7 7 7 8 8 8 8 8 9 9 9 10 10 9 7 5 3 2 2 1 1 1 0 -0 -0
4 4 5 6 6 7 7 6 6 7 8 7 6 6 6 7 8 8 8 8 8 8 8 8 8 8 8 9 10 10 10 9 8 6 4 2 2 2 1 1 1 1 1 1
4 4 5 5 6 6 6 6 6 7 7 7 6 5 5 6 7 8 8 8 8 8 8 8 8 8 9 9 10 10 9 8 7 6 4 2 2 2 2 2 2 2 2 2
4 4 5 5 5 5 6 6 6 6 6 6 5 4 4 6 7 7 8 8 8 8 8 8 8 9 9 10 10 9 9 8 7 6 4 3 3 3 3 3 2 3 4 5
4 4 4 5 5 5 5 6 6 6 6 5 5 4 4 6 7 7 8 8 8 8 8 8 9 9 10 10 9 9 9 8 7 6 5 4 4 4 4 4 5 5 7 8
4 4 4 4 5 5 5 5 5 5 4 4 4 4 5 6 7 8 8 8 8 8 8 9 9 10 10 10 9 9 8 8 8 8 7 6 6 6 6 7 8 9 11 12
4 4 4 4 4 5 5 5 4 3 2 3 4 5 5 7 8 8 8 8 7 8 8 9 9 9 9 9 9 8 8 8 9 9 9 9 9 9 10 10 12 12 13 14
3 3 4 4 4 4 4 4 3 2 2 3 4 5 6 7 8 8 7 7 7 7 7 8 8 8 8 8 8 8 8 8 9 10 11 11 12 12 12 13 13 13 13 13
3 3 4 4 4 4 4 4 4 3 3 3 4 5 6 7 7 7 7 7 6 6 7 7 7 8 8 8 8 8 8 9 10 11 12 13 13 13 13 13 13 13 12 12
3 3 4 4 4 4 4 4 4 4 3 2 3 4 6 6 7 7 6 6 6 6 6 7 7 7 8 8 8 8 8 9 10 11 13 13 13 13 12 12 12 11 11 12
3 3 4 4 4 3 3 4 4 4 3 2 2 4 5 6 6 6 6 6 6 6 6 6 6 7 7 7 7 8 8 9 10 11 12 13 12 12 11 11 11 10 11 11
3 3 3 3 4 4 4 4 4 4 4 3 3 4 5 6 6 6 6 6 6 5 5 5 6 6 6 7 7 8 8 9 10 11 12 12 11 11 10 10 10 10 11 11
3 3 3 3 3 4 4 4 4 4 4 4 4 4 6 6 6 5 5 5 5 5 4 5 5 5 6 7 7 7 8 8 10 11 12 11 11 10 9 9 9 10 11 12
2 3 3 3 3 4 4 4 4 4 4 4 5 5 6 6 5 5 4 4 4 4 4 4 5 5 6 6 6 7 7 8 10 11 11 11 10 9 8 9 10 11 12 12
2 2 2 3 3 4 4 4 4 4 5 5 5 6 5 5 5 4 4 4 5 5 5 5 5 5 6 6 6 6 7 8 9 10 11 11 10 9 8 9 10 12 12 13
2 2 2 3 4 4 5 5 5 5 5 6 6 6 6 5 5 5 5 5 6 6 5 5 6 6 6 6 6 6 7 8 9 10 11 11 10 9 9 9 11 12 13 13
1 2 2 3 3 4 5 5 5 5 6 6 6 6 6 6 6 6 6 6 6 6 6 6 6 6 6 6 6 6 7 8 10 11 11 11 10 9 9 10 11 12 13 14
1 1 2 2 3 4 5 6 5 5 5 5 6 6 6 6 6 6 6 6 6 6 6 6 6 6 6 6 6 7 8 9 10 10 11 11 10 10 10 11 12 13 14 14
1 1 1 2 2 3 5 5 5 4 5 5 5 6 6 6 7 7 7 7 7 7 7 7 7 7 7 7 7 7 8 9 9 10 11 11 11 10 10 12 13 14 14 15
1 1 1 2 2 3 5 5 4 4 4 5 5 6 6 7 7 8 8 7 7 7 8 8 8 7 7 7 8 8 8 9 10 11 11 11 11 11 12 14 15 15 16 16
1 1 1 2 2 3 4 4 3 3 4 5 6 6 6 7 7 8 8 7 8 8 8 8 8 7 7 8 8 8 8 9 11 12 12 12 13 13 15 16 16 16 17 17
1 1 1 2 2 3 4 4 3 3 4 5 6 6 6 7 7 7 8 8 8 8 8 8 8 7 7 7 7 7 8 11 12 13 13 13 14 16 17 17 17 17 17 17
2 2 2 2 3 4 4 3 3 3 4 5 5 6 6 7 7 7 7 7 7 7 7 7 6 6 6 7 8 8 10 12 13 13 13 14 16 17 17 17 17 17 17 17
3 3 3 3 4 4 4 4 3 4 4 5 5 6 6 7 7 6 6 6 5 5 6 6 5 5 5 7 9 10 12 13 13 13 14 16 16 17 17 18 18 18 17 17
3 3 3 4 4 4 4 4 4 4 4 4 5 5 6 6 5 5 5 4 4 4 5 5 5 5 6 8 10 12 13 14 14 14 15 16 17 17 17 18 18 18 18 17
4 4 4 4 4 5 5 5 5 4 4 3 4 5 5 5 5 4 4 4 3 4 5 5 5 6 8 10 12 13 14 14 14 15 16 16 16 17 17 17 17 18 18 18